Flag for Spain Weather past 2 weeks in Torrevieja, Spain

Now
79 °F

Passing clouds.


Feels Like: 82 °F
Forecast: 72 / 86 °F
Wind: 10 mph from Northeast

Location: Murcia / San Javier

Current Time: Aug 30, 2014 at 2:27:45 AM

Latest Report: Aug 29, 2014 at 11:00 PM


Visibility: 6 mi

Pressure: 29.98 "Hg

Humidity: 84%

Dew point: 73 °F

Location of TorreviejaLocation

Historic Weather in Torrevieja — Graph

°F

Torrevieja temperature yesterday

Maximum temperature yesterday: 84 °F (at 3:00 PM)
Minimum temperature yesterday: 73 °F (at 7:00 AM)
Average temperature yesterday: 80 °F

Past Weeks' High & Low Weather Summary

 TemperatureHumidityPressure
High93 °F (Aug 26, 2:00 PM)89% (Aug 21, 8:00 AM)30.12 "Hg (Aug 21, 8:00 AM)
Low68 °F (Aug 26, 7:00 AM)29% (Aug 26, 7:00 PM)29.83 "Hg (Aug 18, 7:00 PM)
Average80 °F69%29.98 "Hg
* Reported Aug 14 11:00 PM — Aug 29 11:00 PM, Torrevieja, Weather by CustomWeather, © 2014

Note: Actual official high and low records may vary slightly from our data, if they occured in-between our weather recording intervals... More about our weather records

Advertising

Torrevieja weather history for previous 24 hours

 ConditionsComfort  
Time TempWeatherWind HumidityBarometerVisibility
11:00 PM
Aug 29
79 °FPassing clouds.10 mph84%29.98 "Hg6 mi
9:00 PM79 °FPassing clouds.6 mph79%29.95 "Hg6 mi
8:00 PM81 °FPassing clouds.6 mph74%29.92 "Hg6 mi
7:00 PM81 °FPassing clouds.7 mph74%29.92 "Hg6 mi
6:00 PM82 °FClear.7 mph70%29.95 "Hg6 mi
5:00 PM84 °FClear.7 mph66%29.95 "Hg6 mi
4:00 PM84 °FPassing clouds.6 mph66%29.95 "Hg6 mi
3:00 PM84 °FPassing clouds.7 mph70%29.98 "Hg6 mi
2:00 PM82 °FPassing clouds.5 mph74%29.98 "Hg6 mi
1:00 PM81 °FPassing clouds.6 mph79%29.98 "Hg5 mi
12:00 PM81 °FClear.5 mph74%29.98 "Hg5 mi
11:00 AM81 °FClear.5 mph74%29.98 "Hg4 mi
10:00 AM79 °FClear.3 mph79%29.98 "Hg4 mi
9:00 AM77 °FClear.2 mph83%29.98 "Hg4 mi
8:00 AM73 °FClear.No wind89%29.95 "Hg4 mi
7:45 AM73 °FClear.1 mph89%29.95 "Hg4 mi
7:00 AM73 °FFog.No wind89%29.95 "Hg2 mi
Weather by CustomWeather, © 2014

See weather overviewHow to use our weather pages